Tracking 30166 objects as of 22-Jan-2025
HD Live streaming from Space Station
objects crossing your sky now

STARLINK-32503

Track STARLINK-32503 now!
10-day predictions
STARLINK-32503 is classified as:


NORAD ID: 62157
Int'l Code: 2024-224U
Perigee: 475.5 km
Apogee: 477.9 km
Inclination: 43.0 °
Period: 94.0 minutes
Semi major axis: 6847 km
RCS: Unknown
Launch date: November 30, 2024
Source: (USA)
Launch site: AIR FORCE EASTERN TEST RANGE (AFETR)
Your satellite tracking list
Your tracking list is empty




NASA's NSSDC Master Catalog

Two Line Element Set (TLE):
1 62157U 24224U   25022.00959315 -.00000984  00000-0 -22375-4 0  9994
2 62157  43.0052 331.2934 0001779 279.8973  80.1679 15.32101021  8994
Source of the keplerian elements: AFSPC